Location: Clarks Summit,Pa.
(41.5000°N, 75.6000°W)
Time: 01:10:45
(UTC-04:00)

X-37B - Visible Passes

Search period start: 04 August 2020 00:00
Search period end: 14 August 2020 00:00
Orbit: 384 x 389 km, 45.0° (Epoch: 29 July)

Date Brightness Start Highest point End Pass type
(mag) Time Alt. Az. Time Alt. Az. Time Alt. Az.
04 Aug ? 03:59:45 21° SE 03:59:45 21° SE 04:00:59 10° SE visible
05 Aug ? 21:08:41 10° S 21:10:45 16° SE 21:11:14 16° SE visible
06 Aug ? 21:45:26 10° SW 21:48:30 51° SSE 21:48:54 46° ESE visible
07 Aug ? 20:47:16 10° SSW 20:50:02 29° SSE 20:52:50 10° E visible
07 Aug ? 22:23:23 10° W 22:26:03 53° WNW 22:26:03 53° WNW visible
08 Aug ? 21:24:46 10° WSW 21:27:56 86° SSE 21:30:30 15° ENE visible
08 Aug ? 23:01:42 10° WNW 23:02:48 19° WNW 23:02:48 19° WNW visible
09 Aug ? 22:03:00 10° W 22:06:04 48° N 22:07:01 34° NE visible
10 Aug ? 21:04:17 10° W 21:07:26 64° NNW 21:10:35 10° ENE visible
10 Aug ? 22:41:18 10° WNW 22:43:20 31° NW 22:43:20 31° NW visible
11 Aug ? 21:42:37 10° WNW 21:45:39 42° N 21:47:17 22° ENE visible
11 Aug ? 23:19:25 10° WNW 23:19:33 11° WNW 23:19:33 11° WNW visible
12 Aug ? 20:43:54 10° W 20:46:59 48° N 20:50:04 10° ENE visible
12 Aug ? 22:20:50 10° WNW 22:23:26 42° NNW 22:23:26 42° NNW visible
13 Aug ? 21:22:12 10° WNW 21:25:14 41° N 21:27:17 18° ENE visible
13 Aug ? 22:58:53 10° WNW 22:59:33 15° WNW 22:59:33 15° WNW visible
